Regional Weather Roundup
Issued by NWS

Home | Current Version | Previous Version | Graphics & Text | Print | Product List | Glossary On
Versions: 1 2 3 4 5 6 7 8 9 10 11 12 13 14 15 16 17 18 19 20 21 22 23 24 25 26 27 28 29 30 31 32 33 34 35 36 37 38 39 40 41 42 43 44 45 46 47 48 49 50
000
ASUS43 KMKX 262207
RWRWI

WISCONSIN REGIONAL WEATHER ROUNDUP
NATIONAL WEATHER SERVICE MILWAUKEE/SULLIVAN WI
500 PM CDT TUE MAY 26 2015

NOTE: "FAIR" INDICATES FEW OR NO CLOUDS BELOW 12,000 FEET WITH NO
SIGNIFICANT WEATHER AND/OR OBSTRUCTIONS TO VISIBILITY.

WIZ001-002-006>008-014>016-023>028-262300-
NORTHWEST WISCONSIN

CITY           SKY/WX    TMP DP  RH WIND       PRES   REMARKS
SUPERIOR ARPT  CLOUDY    56  52  86 NE6       29.81S
ASHLAND        CLOUDY    56  54  93 N8        29.79F
HAYWARD        LGT RAIN  56  53  90 N13       29.77F
SIREN          LGT RAIN  57  56  95 N6        29.79S
CUMBERLAND     RAIN      57  55  94 N10       29.75S
RICE LAKE      RAIN      61  58  88 N10       29.75S
CHETEK         RAIN      62  61  96 NW7       29.72S
LADYSMITH      DRIZZLE   64  61  92 N12       29.74S
EAU CLAIRE     NOT AVBL
MENOMONIE      RAIN      64  63  94 CALM      29.73R
NEW RICHMOND   RAIN      59  59 100 N10       29.77R
OSCEOLA        LGT RAIN  58  58 100 NW7       29.80S
$$

WIZ003>005-009-010-017-018-262300-
NORTH CENTRAL WISCONSIN

CITY           SKY/WX    TMP DP  RH WIND       PRES   REMARKS
MANITOWISH WTR LGT RAIN  59  59 100 NE6       29.76F
ARBOR VITAE    RAIN      63  61  93 NE8       29.74F
WOODRUFF       RAIN      63  61  93 NE8       29.74F
RHINELANDER    CLOUDY    64  61  90 VRB3      29.73F
EAGLE RIVER    LGT RAIN  62  61  96 E8        29.74F
LAND O LAKES   HVY RAIN  60  58  95 CALM      29.79S VSB 1
PHILLIPS       LGT RAIN  65  64  96 NE8       29.72F
TOMAHAWK       LGT RAIN  63  61  92 N5        29.72F
MEDFORD        CLOUDY    65  61  86 NE8       29.69F
MERRILL        CLOUDY    65  64  95 NE6       29.71S
$$

WIZ029-030-035-036-043>047-262300-
CENTRAL WISCONSIN

CITY           SKY/WX    TMP DP  RH WIND       PRES   REMARKS
WAUSAU         LGT RAIN  65  61  87 NE7       29.65F
MOSINEE        LGT RAIN  63  63 100 N8        29.68F
MARSHFIELD     HVY RAIN  64  60  87 E7        29.67F FOG
STEVENS POINT  CLOUDY    64  62  93 NE8       29.66F
WAUPACA        DRIZZLE   67  67  98 NE7       29.64F
WAUTOMA        PTSUNNY   70  70 100 CALM      29.64F
WISC RAPIDS    RAIN      64  61  90 E6        29.66F FOG
CAMP DOUGLAS   LGT RAIN  68  68 100 VRB6      29.61F
$$

WIZ011>013-019>022-031-037>040-048>050-262300-
NORTHEAST WISCONSIN

CITY           SKY/WX    TMP DP  RH WIND       PRES   REMARKS
ANTIGO         CLOUDY    64  62  94 E9        29.72S
SHAWANO        LGT RAIN  68  65  90 E7        29.69F
OCONTO         CLOUDY    64  64 100 E5        29.70F
STURGEON BAY   CLOUDY    63  61  94 SE13      29.73F
GREEN BAY      CLOUDY    67  64  90 SE16      29.67F FOG
MANITOWOC      CLOUDY    63  61  94 S17G23    29.71S
APPLETON       PTSUNNY   66  64  94 SE12G29   29.66F
CLINTONVILLE   HVY RAIN  64  64 100 E7        29.66F
OSHKOSH        MOSUNNY   74  63  68 SW15G22   29.64F
$$

WIZ032>034-041-042-053>061-262300-
SOUTHWEST WISCONSIN

CITY           SKY/WX    TMP DP  RH WIND       PRES   REMARKS
LA CROSSE      RAIN      64  62  93 NW12      29.62S FOG
SPARTA         CLOUDY    67  62  85 E8        29.64F
VIROQUA        CLOUDY    65  65 100 S8        29.64F
BOSCOBEL       CLOUDY    69  63  81 SW18G25   29.65R
PRAIRIE DU CHI CLOUDY    63  62  96 W21G30    29.68R
PLATTEVILLE    CLOUDY    67  63  88 W21G32    29.71R
$$

WIZ056-057-062-063-064-067-068-262300-
SOUTH CENTRAL WISCONSIN

CITY           SKY/WX    TMP DP  RH WIND       PRES   REMARKS
REEDSBURG      CLOUDY    70  64  80 S13G20    29.64S
BARABOO/DELLS  CLOUDY    71  62  73 S10       29.64S
LONE ROCK      NOT AVBL
MINERAL POINT  LGT RAIN  68  64  88 SW31G38   29.66S
MADISON        CLOUDY    71  64  78 SW9       29.65S
MIDDLETON      CLOUDY    70  65  82 SW9G24    29.67R
WATERTOWN      MOSUNNY   76  65  68 S13G23    29.66F
MONROE         PTSUNNY   72  61  68 SW33G39   29.70R
JANESVILLE     PTSUNNY   73  64  73 SW21G26   29.70R
$$

WIZ051-052-058>065-066-070>072-262300-
SOUTHEAST WISCONSIN

CITY           SKY/WX    TMP DP  RH WIND       PRES   REMARKS
MILWAUKEE      MOSUNNY   76  62  62 SW20      29.70F
WAUKESHA       PTSUNNY   73  61  64 S22G29    29.71F
MILWAUKEE/TIMM MOSUNNY   75  57  53 SW20G25   29.70F
RACINE         SUNNY     75  61  61 S20G30    29.73F
BURLINGTON     MOSUNNY   73  62  69 S24       29.71F
KENOSHA        PTSUNNY   74  62  66 S18G25    29.72F
FOND DU LAC    MOSUNNY   75  61  61 SW17G28   29.65F
SHEBOYGAN      CLOUDY    65  62  90 SE8       29.69F
WEST BEND      MOSUNNY   73  63  68 S15G23    29.68F
JUNEAU         CLOUDY    73  63  71 S15       29.68F
$$

LSZ147-162-262300-
LAKE SUPERIOR

STATION/POSITION TIME  TEMP    WIND        PRES    WAVE
                       AIR SEA DIR/SP/G            HT/PER
                 (UTC) (F)     (DEG/KT/KT) (MB)    (FT/S)
W MID LAKE BUOY  2050   40 37   40/  4/  4   N/A     1
DEVILS ISLAND    2100   44      70/  4/  6   N/A
PORT WING        2000   47      20/ 11/ 12   N/A
SAXON HARBOR     2140   49        CALM     1088.0
$$

LMZ867-665-643>646-262300-
LAKE MICHIGAN

STATION/POSITION TIME  TEMP    WIND        PRES    WAVE
                       AIR SEA DIR/SP/G            HT/PER
                 (UTC) (F)     (DEG/KT/KT) (MB)    (FT/S)
CHAMBERS ISLAND  2100   64     160/  3/  7 1075.0
N MID LAKE BUOY  2050   49 37  230/  6/  6 1087.0    3/ 5
NORTHPORT PIER   2100   60     160/  9/ 12 1075.0F
SISTER BAY       2118   63     150/  8/ 11   N/A
ALGOMA LAKESHORE 2108             CALM       N/A
KEWAUNEE LAKESHO 2100   56     180/  5/  8 1062.0F
SHEBOYGAN LAKESH 2100   51     180/ 10/ 12 1063.0S
PORT WASHINGTON  2140   54     170/  3/  6 1064.0F
ATWATER BUOY     2100   53 48  170/  8/ 10 1072.0F
MILWAUKEE LAKESH 2100          210/ 20/ 24   N/A
S MID LAKE BUOY  2050   48 38  190/ 16/ 17 1084.0R
KENOSHA   LAKESH 2000   58     190/ 12/ 17 1071.0F
$$

TC  - TEMPERATURE IN CELSIUS
VSB - VISIBILITY IN STATUTE MILES
WCI - WIND CHILL INDEX
HX  - HEAT INDEX




USA.gov is the U.S. government's official web portal to all federal, state and local government web resources and services.